Time,TemperatureF,DewpointF,PressureIn,WindDirection,WindDirectionDegrees,WindSpeedMPH,WindSpeedGustMPH,Humidity,HourlyPrecipIn,Conditions,Clouds,dailyrainin,SoftwareType,DateUTC
2014-02-14 01:25:00,11.3,-5.4,28.44,NNW,338,2.9,2.9,46,0.00,,,0.00,VWS V14.01,2014-02-14 07:25:00,
2014-02-14 01:30:00,11.3,-5.4,28.44,NNW,338,1.3,2.9,46,0.00,,,0.00,VWS V14.01,2014-02-14 07:30:00,
2014-02-14 01:35:00,11.1,-5.6,28.44,NNW,338,2.5,2.9,46,0.00,,,0.00,VWS V14.01,2014-02-14 07:35:00,
2014-02-14 01:40:00,11.3,-5.4,28.44,NNW,338,1.3,2.5,46,0.00,,,0.00,VWS V14.01,2014-02-14 07:40:00,
2014-02-14 01:45:00,11.1,-5.6,28.44,NNW,338,2.2,2.7,46,0.00,,,0.00,VWS V14.01,2014-02-14 07:45:00,
2014-02-14 01:50:00,11.1,-5.6,28.44,North,0,2.9,2.9,46,0.00,,,0.00,VWS V14.01,2014-02-14 07:50:00,
2014-02-14 01:55:00,11.1,-5.6,28.44,NNW,338,3.8,3.8,46,0.00,,,0.00,VWS V14.01,2014-02-14 07:55:00,
2014-02-14 02:00:00,11.1,-5.6,28.44,NNW,338,2.9,4.0,46,0.00,,,0.00,VWS V14.01,2014-02-14 08:00:00,
2014-02-14 02:05:00,11.1,-5.6,28.44,NW,315,2.5,4.0,46,0.00,,,0.00,VWS V14.01,2014-02-14 08:05:00,
2014-02-14 02:10:00,11.1,-5.6,28.44,NNW,338,3.1,3.1,46,0.00,,,0.00,VWS V14.01,2014-02-14 08:10:00,
2014-02-14 02:15:00,11.3,-5.4,28.44,NNW,338,4.0,5.6,46,0.00,,,0.00,VWS V14.01,2014-02-14 08:15:00,
2014-02-14 02:20:00,11.1,-5.6,28.41,NNW,338,4.9,4.9,46,0.00,,,0.00,VWS V14.01,2014-02-14 08:20:00,
2014-02-14 02:25:00,11.3,-5.4,28.44,NNW,338,2.9,2.9,46,0.00,,,0.00,VWS V14.01,2014-02-14 08:25:00,
2014-02-14 02:30:00,11.3,-5.4,28.44,NNW,338,1.3,2.9,46,0.00,,,0.00,VWS V14.01,2014-02-14 08:30:00,
2014-02-14 02:35:00,11.1,-5.6,28.44,NNW,338,2.5,2.9,46,0.00,,,0.00,VWS V14.01,2014-02-14 08:35:00,
2014-02-14 02:40:00,11.3,-5.4,28.44,NNW,338,1.3,2.5,46,0.00,,,0.00,VWS V14.01,2014-02-14 08:40:00,
2014-02-14 02:45:00,11.1,-5.6,28.44,NNW,338,2.2,2.7,46,0.00,,,0.00,VWS V14.01,2014-02-14 08:45:00,
2014-02-14 02:50:00,11.1,-5.6,28.44,North,0,2.9,2.9,46,0.00,,,0.00,VWS V14.01,2014-02-14 08:50:00,
2014-02-14 02:55:00,11.1,-5.6,28.44,NNW,338,3.8,3.8,46,0.00,,,0.00,VWS V14.01,2014-02-14 08:55:00,
2014-02-14 03:00:00,11.1,-5.6,28.44,NNW,338,2.9,4.0,46,0.00,,,0.00,VWS V14.01,2014-02-14 09:00:00,
2014-02-14 03:05:00,11.1,-5.6,28.44,NW,315,2.5,4.0,46,0.00,,,0.00,VWS V14.01,2014-02-14 09:05:00,
2014-02-14 03:10:00,11.1,-5.6,28.44,NNW,338,3.1,3.1,46,0.00,,,0.00,VWS V14.01,2014-02-14 09:10:00,
2014-02-14 03:15:00,11.3,-5.4,28.44,NNW,338,4.0,5.6,46,0.00,,,0.00,VWS V14.01,2014-02-14 09:15:00,
2014-02-14 03:20:00,11.1,-5.6,28.41,NNW,338,4.9,4.9,46,0.00,,,0.00,VWS V14.01,2014-02-14 09:20:00,
2014-02-14 03:25:00,11.1,-5.6,28.41,NNW,338,4.3,5.8,46,0.00,,,0.00,VWS V14.01,2014-02-14 09:25:00,
2014-02-14 03:30:00,11.1,-5.6,28.41,NNW,338,2.9,4.9,46,0.00,,,0.00,VWS V14.01,2014-02-14 09:30:00,
2014-02-14 03:35:00,10.9,-5.8,28.41,NNW,338,3.6,4.3,46,0.00,,,0.00,VWS V14.01,2014-02-14 09:35:00,
2014-02-14 03:40:00,10.9,-5.8,28.41,NNW,338,2.9,4.5,46,0.00,,,0.00,VWS V14.01,2014-02-14 09:40:00,
2014-02-14 03:45:00,10.9,-5.8,28.41,NNW,338,3.1,4.3,46,0.00,,,0.00,VWS V14.01,2014-02-14 09:45:00,
2014-02-14 03:50:00,10.8,-5.9,28.41,NNW,338,3.8,3.8,46,0.00,,,0.00,VWS V14.01,2014-02-14 09:50:00,
2014-02-14 03:55:00,10.8,-5.9,28.41,NNW,338,4.7,6.9,46,0.00,,,0.00,VWS V14.01,2014-02-14 09:55:00,
2014-02-14 04:00:00,10.8,-5.9,28.41,NNW,338,4.7,6.0,46,0.00,,,0.00,VWS V14.01,2014-02-14 10:00:00,
2014-02-14 04:05:00,10.8,-5.9,28.44,NNW,338,4.9,7.6,46,0.00,,,0.00,VWS V14.01,2014-02-14 10:05:00,
2014-02-14 04:10:00,10.8,-5.9,28.44,NNW,338,5.8,7.4,46,0.00,,,0.00,VWS V14.01,2014-02-14 10:10:00,
2014-02-14 04:15:00,10.8,-5.9,28.44,NNW,338,6.0,8.1,46,0.00,,,0.00,VWS V14.01,2014-02-14 10:15:00,
2014-02-14 04:20:00,10.8,-5.9,28.44,North,0,6.0,6.0,46,0.00,,,0.00,VWS V14.01,2014-02-14 10:20:00,
2014-02-14 04:25:00,10.8,-5.9,28.44,NNW,338,5.6,6.3,46,0.00,,,0.00,VWS V14.01,2014-02-14 10:25:00,
2014-02-14 04:30:00,10.8,-5.9,28.44,NNE,22,5.8,7.2,46,0.00,,,0.00,VWS V14.01,2014-02-14 10:30:00,
2014-02-14 04:35:00,10.9,-5.8,28.44,NNE,22,4.0,6.3,46,0.00,,,0.00,VWS V14.01,2014-02-14 10:35:00,
2014-02-14 04:40:00,10.9,-5.8,28.44,NNW,338,3.6,6.3,46,0.00,,,0.00,VWS V14.01,2014-02-14 10:40:00,
2014-02-14 04:45:00,10.9,-5.8,28.44,NNW,338,8.7,8.7,46,0.00,,,0.00,VWS V14.01,2014-02-14 10:45:00,
2014-02-14 04:50:00,11.1,-5.6,28.47,NNW,338,7.4,8.7,46,0.00,,,0.00,VWS V14.01,2014-02-14 10:50:00,
2014-02-14 04:55:00,10.9,-5.8,28.47,NNW,338,10.3,10.3,46,0.00,,,0.00,VWS V14.01,2014-02-14 10:55:00,
2014-02-14 05:00:00,10.9,-5.8,28.47,NNW,338,9.8,12.1,46,0.00,,,0.00,VWS V14.01,2014-02-14 11:00:00,
2014-02-14 05:05:00,10.8,-5.9,28.47,NNW,338,9.2,10.7,46,0.00,,,0.00,VWS V14.01,2014-02-14 11:05:00,
2014-02-14 05:10:00,10.6,-6.1,28.47,NNW,338,7.6,10.1,46,0.00,,,0.00,VWS V14.01,2014-02-14 11:10:00,
2014-02-14 05:15:00,10.4,-6.3,28.47,NNW,338,8.7,12.1,46,0.00,,,0.00,VWS V14.01,2014-02-14 11:15:00,
2014-02-14 05:20:00,10.4,-6.3,28.47,NNW,338,7.8,9.6,46,0.00,,,0.00,VWS V14.01,2014-02-14 11:20:00,
2014-02-14 05:25:00,10.4,-6.3,28.47,NNW,338,6.5,13.0,46,0.00,,,0.00,VWS V14.01,2014-02-14 11:25:00,
2014-02-14 05:30:00,10.4,-6.3,28.47,NNE,22,7.8,10.7,46,0.00,,,0.00,VWS V14.01,2014-02-14 11:30:00,
2014-02-14 05:35:00,10.2,-6.4,28.47,North,0,8.7,10.1,46,0.00,,,0.00,VWS V14.01,2014-02-14 11:35:00,
2014-02-14 05:40:00,10.2,-6.4,28.47,NNW,338,6.0,10.5,46,0.00,,,0.00,VWS V14.01,2014-02-14 11:40:00,
2014-02-14 05:45:00,10.2,-6.4,28.47,NNW,338,8.5,10.5,46,0.00,,,0.00,VWS V14.01,2014-02-14 11:45:00,
2014-02-14 05:50:00,10.2,-6.4,28.50,NNW,338,11.0,11.0,46,0.00,,,0.00,VWS V14.01,2014-02-14 11:50:00,
2014-02-14 05:55:00,10.0,-6.6,28.50,NNW,338,9.8,11.0,46,0.00,,,0.00,VWS V14.01,2014-02-14 11:55:00,
2014-02-14 06:00:00,9.9,-6.8,28.50,NNW,338,8.1,11.0,46,0.00,,,0.00,VWS V14.01,2014-02-14 12:00:00,
2014-02-14 06:05:00,9.7,-6.9,28.50,NNW,338,9.4,10.7,46,0.00,,,0.00,VWS V14.01,2014-02-14 12:05:00,
2014-02-14 06:10:00,9.7,-6.9,28.50,NNW,338,6.5,10.1,46,0.00,,,0.00,VWS V14.01,2014-02-14 12:10:00,
2014-02-14 06:15:00,9.5,-7.1,28.50,NNW,338,8.1,10.7,46,0.00,,,0.00,VWS V14.01,2014-02-14 12:15:00,
2014-02-14 06:20:00,9.3,-7.3,28.50,NNW,338,8.1,11.0,46,0.00,,,0.00,VWS V14.01,2014-02-14 12:20:00,
2014-02-14 06:25:00,9.0,-7.6,28.50,NNW,338,7.8,11.0,46,0.00,,,0.00,VWS V14.01,2014-02-14 12:25:00,
2014-02-14 06:30:00,8.8,-7.8,28.50,NNW,338,6.5,8.5,46,0.00,,,0.00,VWS V14.01,2014-02-14 12:30:00,
2014-02-14 06:35:00,8.8,-7.8,28.52,NNW,338,5.6,8.5,46,0.00,,,0.00,VWS V14.01,2014-02-14 12:35:00,
2014-02-14 06:40:00,8.8,-7.8,28.52,NNW,338,8.1,9.4,46,0.00,,,0.00,VWS V14.01,2014-02-14 12:40:00,
2014-02-14 06:45:00,8.6,-7.9,28.52,NNW,338,6.0,10.5,46,0.00,,,0.00,VWS V14.01,2014-02-14 12:45:00,
2014-02-14 06:50:00,8.6,-7.9,28.52,NNW,338,5.8,10.7,46,0.00,,,0.00,VWS V14.01,2014-02-14 12:50:00,
2014-02-14 06:55:00,8.6,-7.9,28.52,North,0,5.4,9.8,46,0.00,,,0.00,VWS V14.01,2014-02-14 12:55:00,
2014-02-14 07:00:00,8.6,-7.9,28.52,NNW,338,4.9,9.8,46,0.00,,,0.00,VWS V14.01,2014-02-14 13:00:00,
2014-02-14 07:05:00,8.4,-8.1,28.52,NNW,338,4.9,7.8,46,0.00,,,0.00,VWS V14.01,2014-02-14 13:05:00,
2014-02-14 07:10:00,8.4,-8.1,28.52,NNW,338,6.5,6.5,46,0.00,,,0.00,VWS V14.01,2014-02-14 13:10:00,
2014-02-14 07:15:00,8.4,-8.1,28.52,NNW,338,7.6,7.6,46,0.00,,,0.00,VWS V14.01,2014-02-14 13:15:00,
2014-02-14 07:20:00,8.1,-8.4,28.52,North,0,8.1,8.1,46,0.00,,,0.00,VWS V14.01,2014-02-14 13:20:00,
2014-02-14 07:25:00,7.9,-8.6,28.52,NNW,338,6.0,10.3,46,0.00,,,0.00,VWS V14.01,2014-02-14 13:25:00,
2014-02-14 07:30:00,7.7,-8.8,28.52,NNW,338,8.5,10.1,46,0.00,,,0.00,VWS V14.01,2014-02-14 13:30:00,
2014-02-14 07:35:00,7.5,-8.9,28.52,NNW,338,6.3,8.5,46,0.00,,,0.00,VWS V14.01,2014-02-14 13:35:00,
2014-02-14 07:40:00,7.5,-8.9,28.52,NNW,338,8.1,11.2,46,0.00,,,0.00,VWS V14.01,2014-02-14 13:40:00,
2014-02-14 07:45:00,7.5,-8.9,28.52,NNW,338,7.8,10.5,46,0.00,,,0.00,VWS V14.01,2014-02-14 13:45:00,
2014-02-14 07:50:00,7.7,-8.8,28.55,NNW,338,7.8,8.7,46,0.00,,,0.00,VWS V14.01,2014-02-14 13:50:00,
2014-02-14 07:55:00,7.7,-8.8,28.55,NNW,338,7.4,8.5,46,0.00,,,0.00,VWS V14.01,2014-02-14 13:55:00,
2014-02-14 08:00:00,7.7,-8.8,28.55,NNW,338,8.1,8.5,46,0.00,,,0.00,VWS V14.01,2014-02-14 14:00:00,
2014-02-14 08:05:00,7.7,-8.8,28.55,WNW,292,6.5,8.7,46,0.00,,,0.00,VWS V14.01,2014-02-14 14:05:00,
2014-02-14 08:10:00,8.1,-8.4,28.55,NNW,338,5.4,7.6,46,0.00,,,0.00,VWS V14.01,2014-02-14 14:10:00,
2014-02-14 08:15:00,8.6,-7.9,28.55,NNW,338,9.0,9.0,46,0.00,,,0.00,VWS V14.01,2014-02-14 14:15:00,
2014-02-14 08:20:00,9.1,-7.4,28.55,NNW,338,6.3,9.8,46,0.00,,,0.00,VWS V14.01,2014-02-14 14:20:00,
2014-02-14 08:25:00,9.3,-7.3,28.55,NNW,338,8.5,9.6,46,0.00,,,0.00,VWS V14.01,2014-02-14 14:25:00,
2014-02-14 08:30:00,9.1,-7.4,28.55,NNW,338,6.5,10.5,46,0.00,,,0.00,VWS V14.01,2014-02-14 14:30:00,
2014-02-14 08:35:00,8.8,-7.8,28.58,NNW,338,6.0,9.4,46,0.00,,,0.00,VWS V14.01,2014-02-14 14:35:00,
2014-02-14 08:40:00,8.6,-7.9,28.58,NNW,338,7.6,8.7,46,0.00,,,0.00,VWS V14.01,2014-02-14 14:40:00,
2014-02-14 08:45:00,8.6,-7.9,28.58,NNW,338,5.6,9.2,46,0.00,,,0.00,VWS V14.01,2014-02-14 14:45:00,
2014-02-14 08:50:00,8.4,-8.1,28.58,NNW,338,8.1,12.1,46,0.00,,,0.00,VWS V14.01,2014-02-14 14:50:00,
2014-02-14 08:55:00,8.4,-8.1,28.58,NNW,338,8.1,10.5,46,0.00,,,0.00,VWS V14.01,2014-02-14 14:55:00,
2014-02-14 09:00:00,8.6,-7.9,28.58,NNW,338,7.4,10.5,46,0.00,,,0.00,VWS V14.01,2014-02-14 15:00:00,
2014-02-14 09:05:00,8.6,-7.9,28.58,NNW,338,7.6,10.3,46,0.00,,,0.00,VWS V14.01,2014-02-14 15:05:00,
2014-02-14 09:10:00,8.8,-7.8,28.58,NNW,338,7.6,10.1,46,0.00,,,0.00,VWS V14.01,2014-02-14 15:10:00,
2014-02-14 09:15:00,9.5,-7.1,28.58,NNW,338,8.5,10.7,46,0.00,,,0.00,VWS V14.01,2014-02-14 15:15:00,
2014-02-14 09:20:00,10.2,-6.4,28.61,NNW,338,6.5,12.5,46,0.00,,,0.00,VWS V14.01,2014-02-14 15:20:00,
2014-02-14 09:25:00,10.2,-6.4,28.61,NNW,338,10.3,12.8,46,0.00,,,0.00,VWS V14.01,2014-02-14 15:25:00,
2014-02-14 09:30:00,10.2,-6.4,28.61,NNW,338,11.0,12.5,46,0.00,,,0.00,VWS V14.01,2014-02-14 15:30:00,
2014-02-14 09:35:00,10.4,-6.3,28.61,NNW,338,11.0,12.3,46,0.00,,,0.00,VWS V14.01,2014-02-14 15:35:00,
2014-02-14 09:40:00,10.8,-5.9,28.61,NNW,338,10.5,13.2,46,0.00,,,0.00,VWS V14.01,2014-02-14 15:40:00,
2014-02-14 09:45:00,11.3,-5.4,28.61,NNW,338,9.8,12.8,46,0.00,,,0.00,VWS V14.01,2014-02-14 15:45:00,
2014-02-14 09:50:00,11.8,-4.9,28.61,NNW,338,10.7,13.0,46,0.00,,,0.00,VWS V14.01,2014-02-14 15:50:00,
2014-02-14 09:55:00,12.2,-4.6,28.61,NNW,338,10.3,10.7,46,0.00,,,0.00,VWS V14.01,2014-02-14 15:55:00,
2014-02-14 10:00:00,12.7,-4.1,28.61,NNW,338,9.4,15.4,46,0.00,,,0.00,VWS V14.01,2014-02-14 16:00:00,
2014-02-14 10:05:00,12.4,-4.4,28.61,NNW,338,10.1,12.5,46,0.00,,,0.00,VWS V14.01,2014-02-14 16:05:00,
2014-02-14 10:10:00,12.2,-4.6,28.61,NNW,338,7.6,11.0,46,0.00,,,0.00,VWS V14.01,2014-02-14 16:10:00,
2014-02-14 10:15:00,11.1,-5.6,28.61,NNW,338,8.7,11.0,46,0.00,,,0.00,VWS V14.01,2014-02-14 16:15:00,
2014-02-14 10:20:00,10.9,-5.8,28.61,NNW,338,7.8,11.9,46,0.00,,,0.00,VWS V14.01,2014-02-14 16:20:00,
2014-02-14 10:25:00,11.5,-5.3,28.61,NNW,338,13.0,13.2,46,0.00,,,0.00,VWS V14.01,2014-02-14 16:25:00,
2014-02-14 10:30:00,10.8,-5.9,28.61,NNW,338,10.5,13.0,46,0.00,,,0.00,VWS V14.01,2014-02-14 16:30:00,
2014-02-14 10:35:00,11.7,-5.1,28.61,NNW,338,9.6,13.9,46,0.00,,,0.00,VWS V14.01,2014-02-14 16:35:00,
2014-02-14 10:40:00,12.0,-4.8,28.61,NNW,338,7.8,11.0,46,0.00,,,0.00,VWS V14.01,2014-02-14 16:40:00,
2014-02-14 10:45:00,12.0,-4.8,28.61,NNW,338,12.1,13.0,46,0.00,,,0.00,VWS V14.01,2014-02-14 16:45:00,
2014-02-14 10:50:00,11.3,-5.4,28.64,NNW,338,13.0,15.2,46,0.00,,,0.00,VWS V14.01,2014-02-14 16:50:00,
2014-02-14 10:55:00,12.6,-4.3,28.64,NNW,338,9.8,13.0,46,0.00,,,0.00,VWS V14.01,2014-02-14 16:55:00,
2014-02-14 11:00:00,12.4,-4.4,28.64,NNW,338,9.8,12.8,46,0.00,,,0.00,VWS V14.01,2014-02-14 17:00:00,
2014-02-14 11:05:00,12.9,-4.0,28.64,NNW,338,10.3,10.7,46,0.00,,,0.00,VWS V14.01,2014-02-14 17:05:00,
2014-02-14 11:10:00,13.1,-6.2,28.64,NNW,338,8.1,11.9,41,0.00,,,0.00,VWS V14.01,2014-02-14 17:10:00,
2014-02-14 11:15:00,12.9,-6.3,28.64,NNE,22,5.6,11.0,41,0.00,,,0.00,VWS V14.01,2014-02-14 17:15:00,
2014-02-14 11:20:00,13.5,-5.8,28.64,NNW,338,6.3,10.5,41,0.00,,,0.00,VWS V14.01,2014-02-14 17:20:00,
2014-02-14 11:25:00,13.1,-6.2,28.64,NNW,338,9.8,9.8,41,0.00,,,0.00,VWS V14.01,2014-02-14 17:25:00,
2014-02-14 11:30:00,12.7,-6.5,28.64,NNW,338,10.1,17.0,41,0.00,,,0.00,VWS V14.01,2014-02-14 17:30:00,
2014-02-14 11:35:00,12.7,-6.5,28.64,NNW,338,7.8,10.7,41,0.00,,,0.00,VWS V14.01,2014-02-14 17:35:00,
2014-02-14 11:40:00,13.6,-5.7,28.64,NNW,338,6.5,10.7,41,0.00,,,0.00,VWS V14.01,2014-02-14 17:40:00,
2014-02-14 11:45:00,12.7,-6.5,28.64,NNW,338,11.0,15.7,41,0.00,,,0.00,VWS V14.01,2014-02-14 17:45:00,
2014-02-14 11:50:00,13.6,-5.7,28.64,NNW,338,11.0,13.2,41,0.00,,,0.00,VWS V14.01,2014-02-14 17:50:00,
2014-02-14 11:55:00,12.9,-6.3,28.64,NW,315,8.5,12.5,41,0.00,,,0.00,VWS V14.01,2014-02-14 17:55:00,
2014-02-14 12:00:00,13.6,-5.2,28.64,NW,315,13.0,13.0,42,0.00,,,0.00,VWS V14.01,2014-02-14 18:00:00,
2014-02-14 12:05:00,13.5,-5.3,28.67,NNW,338,10.3,13.4,42,0.00,,,0.00,VWS V14.01,2014-02-14 18:05:00,
2014-02-14 12:10:00,14.0,-5.3,28.67,NNW,338,8.5,10.5,41,0.00,,,0.00,VWS V14.01,2014-02-14 18:10:00,
2014-02-14 12:15:00,14.0,-5.3,28.67,NNW,338,10.3,15.2,41,0.00,,,0.00,VWS V14.01,2014-02-14 18:15:00,
2014-02-14 12:20:00,13.5,-5.8,28.67,NNW,338,8.7,14.8,41,0.00,,,0.00,VWS V14.01,2014-02-14 18:20:00,
2014-02-14 12:25:00,14.4,-5.0,28.67,NNW,338,9.6,10.7,41,0.00,,,0.00,VWS V14.01,2014-02-14 18:25:00,
2014-02-14 12:30:00,14.2,-5.2,28.67,NNW,338,10.5,13.2,41,0.00,,,0.00,VWS V14.01,2014-02-14 18:30:00,
2014-02-14 12:35:00,14.4,-5.0,28.64,North,0,11.9,13.0,41,0.00,,,0.00,VWS V14.01,2014-02-14 18:35:00,
2014-02-14 12:40:00,13.6,-5.7,28.64,NNW,338,7.6,13.4,41,0.00,,,0.00,VWS V14.01,2014-02-14 18:40:00,
2014-02-14 12:45:00,14.4,-5.0,28.64,NNW,338,7.8,12.3,41,0.00,,,0.00,VWS V14.01,2014-02-14 18:45:00,
2014-02-14 12:50:00,14.9,-4.0,28.67,NNW,338,9.2,12.8,42,0.00,,,0.00,VWS V14.01,2014-02-14 18:50:00,
2014-02-14 12:55:00,14.2,-5.2,28.67,NW,315,6.3,13.4,41,0.00,,,0.00,VWS V14.01,2014-02-14 18:55:00,
2014-02-14 13:00:00,14.5,-4.9,28.67,NNW,338,9.8,11.9,41,0.00,,,0.00,VWS V14.01,2014-02-14 19:00:00,
2014-02-14 13:05:00,15.3,-4.2,28.67,WNW,292,8.1,12.1,41,0.00,,,0.00,VWS V14.01,2014-02-14 19:05:00,
2014-02-14 13:10:00,15.4,-4.0,28.67,NNW,338,11.2,11.9,41,0.00,,,0.00,VWS V14.01,2014-02-14 19:10:00,
2014-02-14 13:15:00,16.0,-3.5,28.67,NNW,338,10.1,11.2,41,0.00,,,0.00,VWS V14.01,2014-02-14 19:15:00,
2014-02-14 13:20:00,15.3,-4.2,28.67,NW,315,8.1,14.8,41,0.00,,,0.00,VWS V14.01,2014-02-14 19:20:00,
2014-02-14 13:25:00,15.1,-4.4,28.67,NNW,338,8.1,13.2,41,0.00,,,0.00,VWS V14.01,2014-02-14 19:25:00,
2014-02-14 13:30:00,15.8,-3.7,28.67,NNW,338,9.0,13.2,41,0.00,,,0.00,VWS V14.01,2014-02-14 19:30:00,
2014-02-14 13:35:00,15.8,-3.2,28.67,NNW,338,12.1,12.3,42,0.00,,,0.00,VWS V14.01,2014-02-14 19:35:00,
2014-02-14 13:40:00,15.8,-3.7,28.67,NNW,338,8.1,13.6,41,0.00,,,0.00,VWS V14.01,2014-02-14 19:40:00,
2014-02-14 13:45:00,15.1,-4.9,28.67,NW,315,10.1,13.2,40,0.00,,,0.00,VWS V14.01,2014-02-14 19:45:00,
2014-02-14 13:50:00,15.4,-4.6,28.67,NNW,338,7.6,11.0,40,0.00,,,0.00,VWS V14.01,2014-02-14 19:50:00,
2014-02-14 13:55:00,16.2,-3.4,28.67,NNW,338,12.1,12.1,41,0.00,,,0.00,VWS V14.01,2014-02-14 19:55:00,
2014-02-14 14:00:00,15.8,-4.2,28.67,NNW,338,10.1,14.8,40,0.00,,,0.00,VWS V14.01,2014-02-14 20:00:00,
2014-02-14 14:05:00,15.1,-4.9,28.67,NNW,338,13.0,14.3,40,0.00,,,0.00,VWS V14.01,2014-02-14 20:05:00,
2014-02-14 14:10:00,15.4,-4.6,28.67,NW,315,10.7,13.0,40,0.00,,,0.00,VWS V14.01,2014-02-14 20:10:00,
2014-02-14 14:15:00,15.4,-4.6,28.67,NNW,338,10.5,14.1,40,0.00,,,0.00,VWS V14.01,2014-02-14 20:15:00,
2014-02-14 14:20:00,15.8,-4.2,28.67,NNW,338,9.4,13.2,40,0.00,,,0.00,VWS V14.01,2014-02-14 20:20:00,
2014-02-14 14:25:00,16.5,-3.1,28.67,NNW,338,9.6,11.2,41,0.00,,,0.00,VWS V14.01,2014-02-14 20:25:00,
2014-02-14 14:30:00,16.7,-2.9,28.67,NNW,338,12.3,12.3,41,0.00,,,0.00,VWS V14.01,2014-02-14 20:30:00,
2014-02-14 14:35:00,16.2,-3.9,28.67,NNW,338,11.0,12.8,40,0.00,,,0.00,VWS V14.01,2014-02-14 20:35:00,
2014-02-14 14:40:00,17.4,-2.2,28.67,NW,315,7.6,11.0,41,0.00,,,0.00,VWS V14.01,2014-02-14 20:40:00,
2014-02-14 14:45:00,16.2,-3.9,28.67,NNW,338,7.8,13.0,40,0.00,,,0.00,VWS V14.01,2014-02-14 20:45:00,
2014-02-14 14:50:00,16.5,-3.6,28.67,NW,315,8.5,14.5,40,0.00,,,0.00,VWS V14.01,2014-02-14 20:50:00,
2014-02-14 14:55:00,16.2,-3.9,28.67,NW,315,8.7,13.0,40,0.00,,,0.00,VWS V14.01,2014-02-14 20:55:00,
2014-02-14 15:00:00,16.0,-4.6,28.67,WNW,292,7.4,13.9,39,0.00,,,0.00,VWS V14.01,2014-02-14 21:00:00,
2014-02-14 15:05:00,16.5,-3.6,28.67,NW,315,14.1,14.1,40,0.00,,,0.00,VWS V14.01,2014-02-14 21:05:00,
2014-02-14 15:10:00,16.3,-3.2,28.67,NNW,338,8.1,14.1,41,0.00,,,0.00,VWS V14.01,2014-02-14 21:10:00,
2014-02-14 15:15:00,16.3,-3.7,28.67,NW,315,12.3,12.8,40,0.00,,,0.00,VWS V14.01,2014-02-14 21:15:00,
2014-02-14 15:20:00,16.2,-3.9,28.67,NNW,338,8.7,12.8,40,0.00,,,0.00,VWS V14.01,2014-02-14 21:20:00,
2014-02-14 15:25:00,15.8,-4.2,28.67,NNW,338,10.3,16.8,40,0.00,,,0.00,VWS V14.01,2014-02-14 21:25:00,
2014-02-14 15:30:00,15.6,-3.9,28.67,NW,315,12.5,12.5,41,0.00,,,0.00,VWS V14.01,2014-02-14 21:30:00,
2014-02-14 15:35:00,15.1,-4.9,28.67,NNW,338,10.3,13.2,40,0.00,,,0.00,VWS V14.01,2014-02-14 21:35:00,
2014-02-14 15:40:00,15.6,-3.9,28.67,NNW,338,10.5,12.8,41,0.00,,,0.00,VWS V14.01,2014-02-14 21:40:00,
2014-02-14 15:45:00,15.6,-3.9,28.67,NNW,338,7.6,11.0,41,0.00,,,0.00,VWS V14.01,2014-02-14 21:45:00,
2014-02-14 15:50:00,15.8,-3.7,28.70,NW,315,8.1,13.0,41,0.00,,,0.00,VWS V14.01,2014-02-14 21:50:00,
2014-02-14 15:55:00,14.9,-5.1,28.70,WNW,292,10.1,14.5,40,0.00,,,0.00,VWS V14.01,2014-02-14 21:55:00,
2014-02-14 16:00:00,16.0,-3.5,28.70,NW,315,7.4,10.3,41,0.00,,,0.00,VWS V14.01,2014-02-14 22:00:00,
2014-02-14 16:05:00,15.4,-4.0,28.70,NNW,338,7.6,13.9,41,0.00,,,0.00,VWS V14.01,2014-02-14 22:05:00,
2014-02-14 16:10:00,15.8,-3.7,28.70,WNW,292,8.5,9.8,41,0.00,,,0.00,VWS V14.01,2014-02-14 22:10:00,
2014-02-14 16:15:00,15.8,-4.2,28.70,NNW,338,9.4,11.0,40,0.00,,,0.00,VWS V14.01,2014-02-14 22:15:00,
2014-02-14 16:20:00,15.3,-4.7,28.70,WNW,292,10.1,11.0,40,0.00,,,0.00,VWS V14.01,2014-02-14 22:20:00,
2014-02-14 16:25:00,15.8,-3.7,28.70,WNW,292,8.7,10.3,41,0.00,,,0.00,VWS V14.01,2014-02-14 22:25:00,
2014-02-14 16:30:00,15.1,-4.9,28.70,NW,315,10.3,12.8,40,0.00,,,0.00,VWS V14.01,2014-02-14 22:30:00,
2014-02-14 16:35:00,14.7,-5.2,28.70,NW,315,8.5,13.2,40,0.00,,,0.00,VWS V14.01,2014-02-14 22:35:00,
2014-02-14 16:40:00,14.5,-5.4,28.70,NNW,338,10.1,15.4,40,0.00,,,0.00,VWS V14.01,2014-02-14 22:40:00,
2014-02-14 16:45:00,14.4,-5.0,28.70,NW,315,7.6,11.0,41,0.00,,,0.00,VWS V14.01,2014-02-14 22:45:00,
2014-02-14 16:50:00,14.0,-5.3,28.70,WNW,292,6.3,10.5,41,0.00,,,0.00,VWS V14.01,2014-02-14 22:50:00,
2014-02-14 16:55:00,13.8,-5.5,28.70,NW,315,7.8,10.3,41,0.00,,,0.00,VWS V14.01,2014-02-14 22:55:00,
2014-02-14 17:00:00,13.6,-5.7,28.70,NW,315,8.7,10.1,41,0.00,,,0.00,VWS V14.01,2014-02-14 23:00:00,
2014-02-14 17:05:00,13.5,-5.8,28.70,NNW,338,9.2,10.7,41,0.00,,,0.00,VWS V14.01,2014-02-14 23:05:00,
2014-02-14 17:10:00,12.9,-6.3,28.70,NNW,338,7.4,11.0,41,0.00,,,0.00,VWS V14.01,2014-02-14 23:10:00,
2014-02-14 17:15:00,12.2,-7.0,28.70,NNW,338,7.4,9.6,41,0.00,,,0.00,VWS V14.01,2014-02-14 23:15:00,
2014-02-14 17:20:00,12.0,-7.2,28.73,NNW,338,7.6,9.6,41,0.00,,,0.00,VWS V14.01,2014-02-14 23:20:00,
2014-02-14 17:25:00,11.3,-7.8,28.73,WNW,292,8.1,8.7,41,0.00,,,0.00,VWS V14.01,2014-02-14 23:25:00,
2014-02-14 17:30:00,10.4,-8.6,28.73,NW,315,6.5,9.0,41,0.00,,,0.00,VWS V14.01,2014-02-14 23:30:00,
2014-02-14 17:35:00,9.9,-9.1,28.73,WNW,292,7.6,8.5,41,0.00,,,0.00,VWS V14.01,2014-02-14 23:35:00,
2014-02-14 17:40:00,9.1,-9.8,28.73,WNW,292,5.6,11.4,41,0.00,,,0.00,VWS V14.01,2014-02-14 23:40:00,
2014-02-14 17:45:00,8.1,-10.8,28.73,NW,315,6.3,7.2,41,0.00,,,0.00,VWS V14.01,2014-02-14 23:45:00,
2014-02-14 17:50:00,7.7,-11.1,28.70,NW,315,5.4,6.3,41,0.00,,,0.00,VWS V14.01,2014-02-14 23:50:00,
2014-02-14 17:55:00,7.3,-11.4,28.70,NW,315,4.7,6.3,41,0.00,,,0.00,VWS V14.01,2014-02-14 23:55:00,
2014-02-14 18:00:00,7.0,-11.7,28.70,NW,315,7.2,7.8,41,0.00,,,0.00,VWS V14.01,2014-02-15 00:00:00,
2014-02-14 18:05:00,6.8,-11.9,28.70,NW,315,6.3,8.5,41,0.00,,,0.00,VWS V14.01,2014-02-15 00:05:00,
2014-02-14 18:10:00,6.4,-12.2,28.70,WNW,292,6.3,7.6,41,0.00,,,0.00,VWS V14.01,2014-02-15 00:10:00,
2014-02-14 18:15:00,6.1,-12.6,28.70,WNW,292,6.3,8.5,41,0.00,,,0.00,VWS V14.01,2014-02-15 00:15:00,
2014-02-14 18:20:00,5.5,-13.1,28.70,NW,315,6.5,8.1,41,0.00,,,0.00,VWS V14.01,2014-02-15 00:20:00,
2014-02-14 18:25:00,5.2,-13.4,28.70,NNW,338,5.4,6.5,41,0.00,,,0.00,VWS V14.01,2014-02-15 00:25:00,
2014-02-14 18:30:00,5.0,-13.5,28.70,NNW,338,5.4,6.0,41,0.00,,,0.00,VWS V14.01,2014-02-15 00:30:00,
2014-02-14 18:35:00,5.0,-13.5,28.73,NNW,338,4.0,5.6,41,0.00,,,0.00,VWS V14.01,2014-02-15 00:35:00,
2014-02-14 18:40:00,4.8,-13.7,28.73,NW,315,5.4,6.3,41,0.00,,,0.00,VWS V14.01,2014-02-15 00:40:00,
2014-02-14 18:45:00,4.5,-14.0,28.73,NNW,338,5.4,5.4,41,0.00,,,0.00,VWS V14.01,2014-02-15 00:45:00,
2014-02-14 18:50:00,4.5,-14.0,28.73,WNW,292,4.9,5.6,41,0.00,,,0.00,VWS V14.01,2014-02-15 00:50:00,
2014-02-14 18:55:00,5.4,-13.2,28.73,NNW,338,6.5,9.8,41,0.00,,,0.00,VWS V14.01,2014-02-15 00:55:00,
2014-02-14 19:00:00,5.7,-12.9,28.73,NW,315,8.5,8.5,41,0.00,,,0.00,VWS V14.01,2014-02-15 01:00:00,
2014-02-14 19:05:00,5.5,-13.1,28.73,WNW,292,9.0,10.3,41,0.00,,,0.00,VWS V14.01,2014-02-15 01:05:00,
2014-02-14 19:10:00,5.4,-13.2,28.73,WNW,292,6.5,9.8,41,0.00,,,0.00,VWS V14.01,2014-02-15 01:10:00,
2014-02-14 19:15:00,5.5,-13.1,28.73,WNW,292,10.5,10.5,41,0.00,,,0.00,VWS V14.01,2014-02-15 01:15:00,
2014-02-14 19:20:00,5.7,-12.9,28.73,WNW,292,10.1,10.5,41,0.00,,,0.00,VWS V14.01,2014-02-15 01:20:00,
2014-02-14 19:25:00,5.5,-13.1,28.73,WNW,292,7.4,10.5,41,0.00,,,0.00,VWS V14.01,2014-02-15 01:25:00,
2014-02-14 19:30:00,5.4,-13.2,28.73,NW,315,6.5,8.7,41,0.00,,,0.00,VWS V14.01,2014-02-15 01:30:00,
2014-02-14 19:35:00,5.2,-13.4,28.73,WNW,292,7.6,8.7,41,0.00,,,0.00,VWS V14.01,2014-02-15 01:35:00,
2014-02-14 19:40:00,5.0,-13.5,28.73,WNW,292,8.5,9.2,41,0.00,,,0.00,VWS V14.01,2014-02-15 01:40:00,
2014-02-14 19:45:00,4.8,-13.7,28.73,WNW,292,7.6,9.0,41,0.00,,,0.00,VWS V14.01,2014-02-15 01:45:00,
2014-02-14 19:50:00,4.5,-14.0,28.73,NW,315,6.3,9.2,41,0.00,,,0.00,VWS V14.01,2014-02-15 01:50:00,
2014-02-14 19:55:00,4.5,-14.0,28.73,NW,315,7.2,7.8,41,0.00,,,0.00,VWS V14.01,2014-02-15 01:55:00,
2014-02-14 20:00:00,4.1,-14.4,28.73,WNW,292,6.7,9.6,41,0.00,,,0.00,VWS V14.01,2014-02-15 02:00:00,
2014-02-14 20:05:00,3.9,-14.5,28.73,WNW,292,6.5,8.7,41,0.00,,,0.00,VWS V14.01,2014-02-15 02:05:00,
2014-02-14 20:10:00,3.7,-14.7,28.73,NNW,338,5.6,7.6,41,0.00,,,0.00,VWS V14.01,2014-02-15 02:10:00,
2014-02-14 20:15:00,3.2,-15.2,28.73,NNW,338,5.6,7.2,41,0.00,,,0.00,VWS V14.01,2014-02-15 02:15:00,
2014-02-14 20:20:00,3.2,-15.2,28.73,NW,315,5.6,6.5,41,0.00,,,0.00,VWS V14.01,2014-02-15 02:20:00,
2014-02-14 20:25:00,3.4,-15.0,28.73,NW,315,6.5,7.6,41,0.00,,,0.00,VWS V14.01,2014-02-15 02:25:00,
2014-02-14 20:30:00,3.4,-15.0,28.73,NW,315,5.8,6.5,41,0.00,,,0.00,VWS V14.01,2014-02-15 02:30:00,
2014-02-14 20:35:00,3.2,-15.2,28.73,WNW,292,7.6,7.6,41,0.00,,,0.00,VWS V14.01,2014-02-15 02:35:00,
2014-02-14 20:40:00,2.5,-15.8,28.73,WNW,292,5.6,7.6,41,0.00,,,0.00,VWS V14.01,2014-02-15 02:40:00,
2014-02-14 20:45:00,2.3,-16.0,28.73,WNW,292,6.3,7.4,41,0.00,,,0.00,VWS V14.01,2014-02-15 02:45:00,
2014-02-14 20:50:00,1.9,-16.3,28.73,WNW,292,5.4,6.5,41,0.00,,,0.00,VWS V14.01,2014-02-15 02:50:00,
2014-02-14 20:55:00,1.4,-16.8,28.73,WNW,292,5.8,6.0,41,0.00,,,0.00,VWS V14.01,2014-02-15 02:55:00,
2014-02-14 21:00:00,1.2,-17.0,28.73,WNW,292,6.3,6.3,41,0.00,,,0.00,VWS V14.01,2014-02-15 03:00:00,
2014-02-14 21:05:00,0.7,-17.5,28.73,WNW,292,5.8,6.3,41,0.00,,,0.00,VWS V14.01,2014-02-15 03:05:00,
2014-02-14 21:10:00,0.7,-17.5,28.73,WNW,292,4.9,6.0,41,0.00,,,0.00,VWS V14.01,2014-02-15 03:10:00,
2014-02-14 21:15:00,0.3,-17.8,28.73,WNW,292,6.0,6.3,41,0.00,,,0.00,VWS V14.01,2014-02-15 03:15:00,
2014-02-14 21:20:00,0.1,-18.0,28.73,WNW,292,6.3,8.1,41,0.00,,,0.00,VWS V14.01,2014-02-15 03:20:00,
2014-02-14 21:25:00,0.0,-18.1,28.73,WNW,292,5.8,7.4,41,0.00,,,0.00,VWS V14.01,2014-02-15 03:25:00,
2014-02-14 21:30:00,-0.4,-18.5,28.73,WNW,292,5.4,6.3,41,0.00,,,0.00,VWS V14.01,2014-02-15 03:30:00,
2014-02-14 21:35:00,-0.9,-19.0,28.73,NW,315,4.9,6.0,41,0.00,,,0.00,VWS V14.01,2014-02-15 03:35:00,
2014-02-14 21:40:00,-0.8,-18.8,28.73,WNW,292,4.0,5.6,41,0.00,,,0.00,VWS V14.01,2014-02-15 03:40:00,
2014-02-14 21:45:00,-0.9,-19.0,28.73,NW,315,3.6,5.4,41,0.00,,,0.00,VWS V14.01,2014-02-15 03:45:00,
2014-02-14 21:50:00,-1.1,-19.1,28.73,WNW,292,4.3,4.7,41,0.00,,,0.00,VWS V14.01,2014-02-15 03:50:00,
2014-02-14 21:55:00,-1.3,-19.3,28.73,NNW,338,2.9,5.4,41,0.00,,,0.00,VWS V14.01,2014-02-15 03:55:00,
2014-02-14 22:00:00,-1.7,-19.6,28.73,WNW,292,2.9,3.6,41,0.00,,,0.00,VWS V14.01,2014-02-15 04:00:00,
2014-02-14 22:05:00,-2.0,-19.9,28.70,WNW,292,2.7,3.4,41,0.00,,,0.00,VWS V14.01,2014-02-15 04:05:00,
2014-02-14 22:10:00,-2.2,-20.1,28.70,WNW,292,4.3,4.7,41,0.00,,,0.00,VWS V14.01,2014-02-15 04:10:00,
2014-02-14 22:15:00,-1.8,-19.8,28.70,WNW,292,6.0,6.3,41,0.00,,,0.00,VWS V14.01,2014-02-15 04:15:00,
2014-02-14 22:20:00,-1.8,-19.8,28.73,WNW,292,4.9,6.0,41,0.00,,,0.00,VWS V14.01,2014-02-15 04:20:00,
2014-02-14 22:25:00,-1.8,-19.8,28.73,WNW,292,4.3,5.6,41,0.00,,,0.00,VWS V14.01,2014-02-15 04:25:00,
2014-02-14 22:30:00,-1.8,-19.8,28.73,WNW,292,4.3,4.9,41,0.00,,,0.00,VWS V14.01,2014-02-15 04:30:00,
2014-02-14 22:35:00,-1.8,-19.8,28.73,WNW,292,4.9,4.9,41,0.00,,,0.00,VWS V14.01,2014-02-15 04:35:00,
2014-02-14 22:40:00,-2.0,-19.9,28.73,WNW,292,3.6,5.4,41,0.00,,,0.00,VWS V14.01,2014-02-15 04:40:00,
2014-02-14 22:45:00,-2.0,-19.9,28.73,WNW,292,3.8,3.8,41,0.00,,,0.00,VWS V14.01,2014-02-15 04:45:00,
2014-02-14 22:50:00,-2.0,-19.9,28.70,WNW,292,3.8,4.3,41,0.00,,,0.00,VWS V14.01,2014-02-15 04:50:00,
2014-02-14 22:55:00,-2.0,-19.9,28.70,NNW,338,4.3,5.8,41,0.00,,,0.00,VWS V14.01,2014-02-15 04:55:00,
2014-02-14 23:00:00,-2.0,-19.9,28.70,WNW,292,0.0,4.3,41,0.00,,,0.00,VWS V14.01,2014-02-15 05:00:00,
2014-02-14 23:05:00,-2.0,-19.9,28.70,WNW,292,0.0,2.9,41,0.00,,,0.00,VWS V14.01,2014-02-15 05:05:00,
2014-02-14 23:10:00,-2.0,-19.9,28.70,NW,315,2.9,3.8,41,0.00,,,0.00,VWS V14.01,2014-02-15 05:10:00,
2014-02-14 23:15:00,-2.0,-19.9,28.70,NNW,338,2.9,3.6,41,0.00,,,0.00,VWS V14.01,2014-02-15 05:15:00,
2014-02-14 23:20:00,-2.0,-19.9,28.70,NNW,338,2.5,2.9,41,0.00,,,0.00,VWS V14.01,2014-02-15 05:20:00,
2014-02-14 23:25:00,-2.0,-19.9,28.70,NNW,338,1.3,2.7,41,0.00,,,0.00,VWS V14.01,2014-02-15 05:25:00,
2014-02-14 23:30:00,-2.0,-19.9,28.70,NW,315,0.0,1.3,41,0.00,,,0.00,VWS V14.01,2014-02-15 05:30:00,
2014-02-14 23:35:00,-2.0,-19.9,28.70,NW,315,0.0,0.0,41,0.00,,,0.00,VWS V14.01,2014-02-15 05:35:00,
2014-02-14 23:40:00,-2.0,-19.9,28.70,ESE,112,1.6,2.7,41,0.00,,,0.00,VWS V14.01,2014-02-15 05:40:00,
2014-02-14 23:45:00,-2.0,-19.9,28.70,ESE,112,2.0,2.0,41,0.00,,,0.00,VWS V14.01,2014-02-15 05:45:00,
2014-02-14 23:50:00,-2.0,-19.9,28.67,SSE,158,1.6,2.9,41,0.00,,,0.00,VWS V14.01,2014-02-15 05:50:00,
2014-02-14 23:55:00,-2.0,-19.9,28.67,SE,135,1.6,2.7,41,0.00,,,0.00,VWS V14.01,2014-02-15 05:55:00,